Temperature
13 13 13 13 13 13 13 13 12 12 12 12 12 12 12 12 12 12 12 12 12 12 12 12 12 11 11 11 12 12 12 12 12 12 12 12 12 12
13 13 12 12 12 12 12 12 12 12 12 12 12 12 12 12 12 11 11 11 11 11 11 11 11 11 11 11 11 11 12 12 12 12 12 12 12 12
12 12 12 12 12 12 12 12 12 12 12 12 12 11 11 11 11 11 11 11 11 11 11 11 11 11 11 11 11 11 11 11 11 12 12 12 12 12
12 12 12 12 12 12 12 12 12 12 12 12 11 11 11 11 11 11 11 11 11 11 11 11 11 11 11 11 11 11 11 11 11 11 11 11 11 11
12 12 12 12 12 12 12 12 12 12 11 11 11 11 11 11 11 11 11 11 11 11 10 10 10 10 10 10 11 11 11 11 11 11 11 11 11 11
12 12 12 12 12 12 12 12 12 12 11 11 11 11 11 11 11 11 11 11 11 11 10 10 10 10 10 10 10 10 10 10 11 11 11 11 11 11
11 11 11 11 11 11 11 11 11 11 11 11 11 11 11 11 11 11 10 10 10 10 10 10 10 10 10 10 10 10 10 10 10 11 11 11 11 11
11 11 11 11 11 11 11 11 11 11 11 11 11 11 11 11 11 10 10 10 10 10 10 10 10 10 10 10 10 10 10 10 10 10 10 10 10 11
11 11 11 11 11 11 11 11 11 11 11 11 11 11 11 11 10 10 10 10 10 10 10 10 10 10 10 10 9 9 9 10 10 10 10 10 10 10
10 10 10 10 10 10 10 11 11 11 10 10 10 10 10 10 10 10 10 10 10 10 9 9 10 10 9 9 9 9 9 9 9 9 10 10 10 10
10 10 10 10 10 10 10 10 10 10 10 10 10 10 10 10 10 10 10 9 9 9 9 9 9 9 9 9 9 9 9 9 9 9 9 9 9 9
9 9 9 9 9 9 9 10 10 10 10 10 10 10 10 9 9 9 9 9 9 9 9 9 9 9 9 9 9 9 9 9 9 9 9 9 9 9
9 9 9 9 9 9 9 9 9 9 9 9 9 9 9 9 9 9 9 9 9 9 9 8 8 8 8 8 8 8 8 8 8 8 8 8 8 8
9 9 9 9 9 9 9 9 9 9 9 9 9 9 9 9 9 9 9 8 8 8 8 8 8 8 8 8 8 8 8 8 8 8 8 8 8 8
8 8 8 8 8 8 8 8 8 8 8 8 8 8 8 8 8 8 8 8 8 8 8 8 8 8 8 7 8 8 8 8 8 8 8 8 8 8
7 7 7 7 7 7 8 8 8 8 8 8 8 8 7 8 8 8 8 8 8 8 8 8 7 7 7 7 7 7 7 7 7 7 7 7 7 7
7 7 7 7 7 7 7 7 7 7 7 7 7 7 7 7 7 7 7 7 7 7 7 7 7 7 7 7 7 7 7 7 7 7 7 7 7 7
6 6 6 6 6 6 6 6 6 6 6 6 6 6 6 6 6 7 6 6 6 7 7 7 6 7 6 6 6 6 6 6 6 6 6 6 7 7
6 6 6 6 6 6 6 6 6 6 6 6 6 6 6 6 6 6 6 6 6 6 6 6 6 6 6 6 6 6 6 6 6 6 6 6 6 7
6 5 5 5 5 5 5 5 5 5 5 5 5 5 5 5 5 5 5 5 5 5 5 5 5 5 5 5 5 5 5 5 5 5 6 6 6 6
5 5 5 5 5 5 5 4 4 5 5 5 5 5 5 4 4 5 5 5 5 4 5 5 5 5 4 4 4 5 5 5 5 5 5 5 5 6
4 4 4 4 4 4 4 4 4 4 4 4 4 4 4 4 4 4 4 4 4 4 4 4 4 4 4 4 4 4 4 5 5 5 5 4 5 5
4 4 4 4 4 4 4 4 4 4 4 4 4 4 4 4 3 3 3 4 4 3 3 4 4 4 3 3 3 3 4 4 4 4 4 4 4 4
Wind_Speed
3 3 2 2 2 2 2 3 4 2 3 3 2 2 3 3 3 3 3 4 5 5 4 4 3 4 5 5 5 5 5 4 4 5 5 5 5 5
2 2 2 2 2 2 2 2 3 4 3 3 3 2 2 2 3 3 4 4 5 5 5 5 4 4 4 5 5 5 4 3 3 4 3 4 5 5
2 2 2 2 2 2 2 2 2 3 3 3 2 1 1 2 1 3 4 4 5 6 5 5 5 4 4 4 4 3 2 2 3 3 2 3 4 4
3 2 2 2 2 2 2 2 3 3 4 3 2 1 2 2 2 2 2 3 4 6 6 6 5 5 4 4 3 3 2 2 2 2 2 2 3 4
3 3 3 3 3 2 2 3 3 3 3 3 3 2 2 1 1 2 2 2 3 5 5 6 6 6 5 4 4 3 2 2 2 1 2 1 2 3
3 3 4 4 5 4 3 4 3 2 2 2 2 2 2 1 0 1 2 2 3 3 3 5 6 6 6 5 4 4 3 3 2 2 2 2 3 3
2 3 4 4 4 4 3 4 3 3 3 2 2 1 2 1 2 2 2 2 3 2 2 2 3 3 4 6 5 5 4 4 3 3 3 3 4 4
2 3 3 2 3 4 4 4 5 5 5 4 3 4 5 4 3 2 2 0 2 2 1 3 1 2 3 5 6 6 5 5 4 4 4 3 4 5
2 2 2 2 2 2 3 3 4 6 7 6 6 6 6 5 4 3 3 3 4 3 1 2 1 3 4 6 6 6 6 6 5 5 4 4 4 5
2 2 2 3 3 2 1 2 3 4 5 6 6 7 6 6 6 6 5 3 2 1 2 2 2 2 3 4 6 6 6 6 6 6 6 5 5 5
2 2 2 3 4 3 2 2 4 4 5 6 7 7 7 7 5 3 2 1 2 2 2 2 2 2 2 3 5 6 6 6 7 6 6 6 5 5
2 2 3 3 4 3 2 3 4 4 3 3 3 4 4 5 6 6 5 4 2 3 3 3 2 1 2 2 2 4 5 7 8 7 7 7 6 4
2 3 3 5 4 3 2 3 5 4 2 2 2 2 2 2 3 4 5 5 4 4 4 4 2 2 2 2 3 3 3 3 4 6 7 8 7 5
2 3 3 5 4 3 2 4 4 1 1 1 1 2 2 3 3 4 4 5 6 6 5 5 3 3 3 2 3 3 2 3 3 3 4 6 6 7
2 4 4 4 3 3 4 4 2 0 1 2 3 3 3 3 2 2 2 2 3 4 5 5 4 3 3 4 3 2 2 3 3 3 3 3 3 3
3 3 3 3 2 2 3 3 2 1 2 3 3 3 2 2 2 1 2 1 1 2 3 5 5 5 4 4 4 4 3 3 2 3 3 3 4 5
1 1 2 2 2 2 2 2 2 2 2 2 3 3 2 2 2 2 2 1 2 2 3 2 2 4 5 4 4 5 4 3 3 3 2 3 4 5
1 1 1 2 2 2 2 3 2 3 3 3 3 3 3 3 3 2 1 2 3 3 3 2 1 1 1 3 5 5 4 4 4 3 3 3 5 4
0 1 2 2 3 3 3 3 3 4 3 3 3 3 3 3 3 3 2 2 3 3 3 2 1 1 2 4 4 5 4 4 3 3 3 4 5 5
1 2 3 3 3 3 3 4 4 3 3 3 3 3 3 3 3 3 3 3 3 3 3 2 2 3 4 5 4 3 5 4 3 4 4 4 4 5
3 3 3 3 3 3 3 3 3 3 3 3 3 4 3 3 4 4 4 5 4 3 4 5 5 5 3 1 2 3 3 5 5 4 3 3 3 2
3 4 4 3 3 3 3 3 3 3 3 3 3 4 4 4 4 5 4 4 4 4 5 4 2 1 2 3 5 5 5 4 5 6 5 5 3 3
3 3 3 3 3 3 2 2 3 3 3 3 3 4 4 4 4 4 4 4 4 4 3 3 2 2 3 4 5 4 5 4 3 3 4 6 8 9
Wind_Direction
194 191 190 203 180 188 171 165 162 200 264 268 271 273 245 219 223 221 232 249 248 242 252 270 276 291 296 293 291 288 284 286 292 293 276 249 235 230
196 188 202 206 192 185 180 176 170 175 219 248 243 256 252 233 239 226 238 251 248 245 246 253 260 279 302 315 312 307 290 284 285 285 272 236 220 219
213 199 220 213 197 202 187 170 177 168 201 254 256 267 232 262 273 244 244 240 244 246 247 252 262 274 283 298 306 325 313 290 288 277 276 220 201 206
230 214 233 229 223 221 201 196 200 192 186 215 240 252 247 244 263 278 261 245 238 246 252 255 260 272 285 289 294 308 318 315 311 293 276 224 196 205
224 215 224 211 227 231 218 214 217 204 184 188 221 229 256 268 291 297 301 283 255 252 257 258 258 264 276 278 283 286 290 288 286 272 253 238 213 219
232 227 227 219 221 220 217 218 210 194 185 187 220 236 246 261 243 277 303 298 286 271 262 256 255 263 265 268 276 276 272 270 269 265 245 240 238 238
258 251 243 242 234 227 220 212 200 197 191 200 222 230 240 230 237 232 246 281 294 275 274 267 251 253 258 257 264 268 267 267 271 277 263 240 240 241
269 283 275 266 267 261 247 228 207 201 203 202 215 221 236 229 222 217 208 245 283 278 228 259 212 251 262 252 264 265 265 265 268 270 265 254 242 237
243 257 280 295 279 273 278 277 250 232 213 203 211 224 223 219 202 210 211 206 232 247 193 248 233 248 264 261 266 261 259 261 264 265 259 257 251 236
239 225 248 273 280 258 254 287 279 267 241 224 220 228 227 219 203 207 211 213 262 273 162 217 248 254 276 264 265 256 256 257 259 263 264 259 253 241
277 267 258 258 282 272 230 252 277 284 275 253 244 239 237 228 200 160 158 160 250 258 208 194 239 277 281 271 270 264 259 256 257 261 262 257 252 248
306 302 286 285 290 272 227 228 254 271 278 281 271 264 254 239 215 199 191 193 206 242 222 189 217 189 299 283 277 271 260 260 258 262 262 257 251 246
289 295 293 300 297 286 257 238 258 263 249 251 265 278 283 266 244 223 204 195 201 226 214 177 193 189 215 276 296 278 256 261 265 266 262 257 250 237
272 282 289 305 302 295 278 297 300 279 208 233 260 268 271 269 266 250 233 223 217 221 210 182 191 196 197 240 273 291 278 266 254 262 266 268 261 252
277 292 299 301 303 300 302 315 324 248 203 237 247 254 258 261 264 272 274 262 257 252 227 206 196 196 195 216 235 250 275 275 247 248 257 253 253 251
313 314 321 323 316 318 323 311 293 245 233 239 249 259 266 263 253 241 243 236 272 295 271 232 209 195 211 224 223 240 232 244 257 248 251 262 264 254
328 351 345 338 336 324 318 306 300 299 272 261 249 255 266 266 260 233 216 217 219 257 293 304 253 224 219 214 230 240 240 246 248 240 240 261 264 256
65 318 294 289 286 284 283 285 281 275 269 261 259 255 255 254 257 248 230 226 238 247 250 262 303 341 333 277 228 235 244 249 257 243 225 243 267 263
330 271 272 273 277 275 269 264 268 272 270 258 259 262 262 255 251 247 241 246 251 255 256 239 220 217 252 276 277 227 230 254 253 249 239 234 252 264
289 273 274 276 277 275 273 271 273 277 272 264 257 261 256 251 251 254 244 242 252 259 263 260 230 225 233 249 261 267 237 234 240 254 262 260 263 277
282 280 277 276 276 274 274 273 272 269 265 260 260 264 260 252 253 255 253 252 252 256 260 258 252 247 246 257 279 282 276 253 243 246 251 265 276 278
284 279 277 275 274 276 278 279 280 277 267 260 259 259 258 253 254 254 253 253 251 253 262 269 263 243 223 239 260 272 284 293 279 273 260 236 224 235
293 292 290 285 277 276 274 278 280 282 279 274 269 263 258 259 259 255 251 250 254 257 261 267 268 245 244 245 255 269 275 280 291 293 289 283 266 264
Height
1518 1518 1518 1518 1518 1519 1519 1519 1519 1518 1517 1517 1516 1516 1516 1515 1514 1513 1512 1511 1510 1509 1508 1507 1506 1505 1504 1503 1501 1500 1499 1498 1497 1496 1495 1495 1496 1498
1516 1516 1516 1516 1516 1516 1516 1517 1517 1517 1515 1515 1514 1514 1514 1513 1513 1511 1510 1509 1508 1507 1506 1505 1504 1503 1501 1500 1498 1495 1493 1492 1492 1492 1491 1490 1492 1494
1514 1514 1514 1514 1514 1514 1514 1514 1514 1514 1513 1513 1513 1513 1512 1511 1510 1509 1508 1507 1506 1505 1504 1503 1502 1501 1499 1498 1495 1492 1490 1489 1490 1490 1489 1488 1490 1492
1511 1511 1511 1511 1511 1511 1511 1511 1511 1511 1511 1510 1510 1510 1510 1509 1508 1507 1506 1505 1504 1503 1502 1501 1500 1499 1498 1496 1494 1492 1490 1489 1489 1489 1488 1488 1489 1491
1508 1508 1508 1509 1508 1508 1508 1508 1508 1508 1508 1508 1507 1507 1507 1507 1506 1505 1504 1503 1502 1501 1500 1499 1498 1497 1496 1494 1493 1491 1490 1490 1489 1489 1489 1489 1489 1491
1505 1506 1506 1506 1506 1505 1505 1505 1505 1505 1505 1505 1504 1504 1504 1504 1503 1502 1501 1500 1499 1499 1498 1497 1496 1495 1494 1493 1492 1491 1490 1489 1489 1488 1488 1489 1489 1489
1502 1502 1503 1503 1502 1502 1502 1502 1502 1501 1501 1501 1501 1501 1500 1500 1500 1499 1498 1498 1497 1496 1495 1494 1494 1493 1492 1491 1490 1489 1489 1488 1488 1487 1487 1487 1487 1488
1499 1499 1499 1499 1499 1499 1499 1499 1499 1498 1498 1498 1497 1497 1497 1497 1497 1496 1496 1495 1493 1494 1493 1492 1491 1491 1490 1490 1489 1488 1487 1487 1486 1485 1485 1485 1485 1485
1495 1495 1495 1495 1495 1495 1495 1495 1495 1495 1495 1495 1494 1494 1494 1494 1494 1493 1493 1492 1491 1491 1490 1489 1489 1488 1488 1487 1486 1486 1485 1485 1484 1483 1483 1483 1483 1483
1492 1492 1492 1492 1492 1491 1491 1491 1491 1491 1491 1491 1491 1491 1491 1491 1491 1490 1490 1489 1488 1488 1487 1486 1486 1485 1485 1485 1484 1484 1483 1483 1482 1481 1480 1480 1480 1480
1489 1488 1488 1488 1488 1488 1488 1487 1487 1487 1487 1487 1487 1487 1487 1487 1487 1487 1486 1485 1484 1484 1484 1483 1482 1482 1482 1482 1482 1481 1480 1480 1480 1479 1478 1477 1477 1477
1485 1484 1484 1484 1484 1484 1484 1483 1483 1483 1483 1482 1482 1482 1482 1482 1482 1482 1482 1481 1481 1480 1480 1480 1479 1479 1478 1478 1478 1478 1478 1477 1477 1476 1475 1475 1474 1474
1480 1480 1480 1480 1480 1480 1480 1480 1479 1479 1478 1478 1478 1478 1478 1478 1478 1478 1478 1478 1477 1477 1477 1477 1476 1476 1476 1475 1475 1475 1475 1474 1473 1473 1472 1472 1471 1471
1477 1476 1476 1476 1476 1476 1476 1475 1475 1475 1474 1474 1474 1474 1474 1473 1473 1474 1474 1474 1473 1474 1474 1473 1473 1472 1472 1471 1471 1471 1471 1471 1470 1469 1469 1469 1468 1467
1474 1473 1473 1473 1472 1472 1472 1472 1471 1471 1470 1470 1469 1469 1470 1470 1470 1469 1469 1469 1469 1470 1470 1469 1469 1469 1468 1468 1467 1467 1467 1467 1467 1466 1465 1465 1464 1463
1471 1470 1469 1469 1468 1468 1467 1467 1467 1467 1466 1466 1465 1466 1466 1465 1465 1465 1465 1465 1465 1465 1465 1465 1464 1464 1463 1463 1463 1462 1463 1462 1462 1462 1461 1461 1461 1460
1467 1467 1466 1465 1464 1463 1463 1463 1462 1462 1462 1461 1461 1461 1461 1461 1461 1461 1461 1460 1460 1460 1460 1460 1460 1460 1459 1459 1458 1458 1458 1458 1458 1458 1457 1456 1456 1456
1464 1463 1462 1461 1460 1460 1459 1458 1458 1458 1457 1457 1457 1456 1456 1455 1455 1456 1456 1456 1455 1455 1455 1456 1455 1455 1455 1454 1455 1454 1454 1453 1453 1453 1452 1451 1450 1451
1461 1459 1458 1457 1457 1456 1455 1455 1454 1454 1453 1453 1452 1452 1451 1451 1451 1451 1451 1451 1451 1451 1451 1451 1451 1450 1449 1448 1449 1450 1449 1449 1448 1447 1447 1446 1446 1446
1457 1456 1455 1454 1453 1452 1451 1450 1450 1449 1449 1448 1448 1447 1447 1446 1446 1446 1446 1446 1446 1446 1446 1446 1446 1446 1446 1445 1445 1445 1445 1445 1444 1443 1442 1441 1441 1441
1453 1452 1451 1450 1449 1448 1447 1446 1445 1444 1444 1444 1443 1443 1442 1441 1441 1441 1441 1441 1441 1441 1440 1441 1441 1442 1442 1441 1440 1439 1440 1440 1439 1439 1438 1437 1436 1435
1449 1448 1447 1446 1445 1444 1443 1442 1441 1440 1439 1439 1438 1438 1437 1436 1436 1435 1436 1436 1436 1436 1436 1436 1437 1437 1436 1436 1435 1434 1434 1435 1435 1434 1434 1433 1432 1431
1445 1444 1443 1441 1440 1439 1438 1437 1436 1435 1434 1434 1433 1432 1432 1431 1431 1430 1430 1431 1431 1431 1431 1431 1431 1431 1431 1431 1431 1430 1430 1429 1429 1428 1428 1428 1428 1428